Total_Precipitation_Accumulation
3.19 3.39 3.32 3.11 3.16 3.26 3.54 3.87 3.96 3.66 3.46 3.29 2.95 2.78 2.89 2.98 3.14 2.95 3.02 2.92 2.45 2.18 2.17 2.28 2.27 2.23 2.31 2.49 2.77 3.05 3.21 3.30 3.46 3.76 4.18 4.61 4.88 5.16
3.42 3.49 3.34 3.06 3.25 3.25 3.38 3.75 4.11 4.20 3.80 3.20 2.97 2.88 3.02 2.80 2.86 2.62 2.69 2.61 2.25 2.03 1.91 1.95 1.96 1.90 1.92 1.99 2.13 2.41 2.61 2.80 2.95 3.01 3.20 3.57 3.88 4.12
3.30 3.22 3.13 3.20 3.40 3.32 3.45 3.61 3.88 4.17 3.82 3.30 3.14 3.16 3.31 3.22 3.03 2.66 2.39 2.29 2.10 2.12 1.94 1.80 1.79 1.82 1.86 1.97 2.05 2.14 2.31 2.54 2.72 2.80 2.93 3.15 3.27 3.43
3.26 3.25 3.09 3.24 3.34 3.32 3.40 3.36 3.48 3.86 3.73 3.42 3.32 3.39 3.35 3.22 3.15 2.92 2.50 2.24 2.27 2.37 2.12 1.96 1.90 1.94 1.84 1.89 1.97 2.01 2.13 2.30 2.51 2.60 2.61 2.60 2.72 2.98
3.28 3.21 3.06 3.20 3.07 3.14 3.17 3.16 3.16 3.31 3.54 3.39 3.20 3.32 3.24 3.13 3.14 3.00 2.90 2.97 2.65 2.46 2.33 2.15 2.06 2.08 2.01 1.92 1.93 1.98 2.08 2.12 2.13 2.25 2.37 2.45 2.49 2.57
2.87 2.80 2.82 2.98 3.07 3.11 3.01 2.98 3.07 3.24 3.37 3.37 3.25 3.32 3.35 3.38 3.34 3.23 3.26 3.18 2.94 2.42 2.33 2.12 2.03 2.01 1.96 1.87 1.85 1.95 2.06 2.10 2.10 2.04 2.09 2.20 2.30 2.41
2.58 2.40 2.43 2.78 2.94 2.95 2.71 2.86 2.99 3.05 3.12 3.25 3.26 3.33 3.42 3.69 3.48 3.23 3.17 3.28 3.11 2.82 2.60 2.27 2.16 2.13 2.10 2.05 1.92 1.85 1.84 1.92 2.01 2.10 2.22 2.33 2.40 2.46
2.36 2.30 2.26 2.32 2.36 2.41 2.45 2.50 2.60 2.68 2.92 3.26 3.32 3.27 3.23 3.37 3.53 3.49 3.44 3.39 3.26 3.11 3.15 2.96 2.63 2.58 2.47 2.31 2.18 1.87 1.61 1.61 1.74 1.87 2.13 2.41 2.66 2.74
2.31 2.38 2.05 1.85 2.07 2.08 2.27 2.28 2.20 2.31 2.48 2.78 2.96 2.95 3.09 3.15 3.51 3.53 3.60 3.61 3.54 3.51 3.57 3.53 3.18 2.88 2.58 2.47 2.43 2.04 1.76 1.59 1.60 1.70 1.84 2.06 2.36 2.70
2.18 2.22 2.15 2.05 2.04 2.19 2.32 2.28 2.09 2.04 2.06 2.02 2.22 2.53 2.84 3.19 3.34 3.44 3.61 3.70 3.69 3.55 3.50 3.50 3.26 3.08 2.73 2.48 2.41 2.20 1.86 1.62 1.54 1.60 1.63 1.70 1.85 2.10
2.08 2.04 2.00 1.94 2.08 2.03 1.97 1.96 1.97 1.97 1.85 1.86 1.90 2.13 2.40 2.54 2.80 3.10 3.35 3.38 3.25 3.07 3.02 3.15 3.11 3.13 3.07 2.81 2.48 2.42 2.01 1.71 1.61 1.60 1.57 1.58 1.69 1.83
2.07 2.03 1.94 1.79 1.85 1.81 1.71 1.83 1.83 1.85 1.98 1.96 1.82 1.79 1.85 2.07 2.24 2.31 2.70 2.97 2.81 2.72 2.51 2.59 2.61 2.88 3.08 2.77 2.49 2.47 2.29 2.03 1.82 1.75 1.70 1.68 1.74 1.63
2.09 2.01 1.97 1.90 1.71 1.69 1.65 1.65 1.73 1.83 1.95 2.03 1.96 1.85 1.94 2.09 2.04 2.02 2.28 2.62 2.73 2.49 2.31 2.59 2.58 2.66 2.75 2.62 2.44 2.35 2.32 2.28 2.16 2.01 1.94 1.88 1.86 1.77
2.25 2.20 2.14 1.96 1.72 1.68 1.59 1.56 1.62 1.54 1.52 1.72 1.79 1.73 1.77 1.86 1.93 1.95 2.08 2.24 2.42 2.39 2.46 2.64 2.71 2.74 2.73 2.61 2.49 2.36 2.22 2.14 2.21 2.38 2.45 2.50 2.27 2.13
2.27 2.38 2.16 1.92 1.74 1.56 1.57 1.63 1.54 1.40 1.45 1.52 1.53 1.57 1.60 1.73 1.97 2.17 2.31 2.45 2.46 2.26 2.12 2.23 2.42 2.68 2.81 2.59 2.34 2.33 2.44 2.27 2.20 2.35 2.44 2.50 2.55 2.52
2.12 2.22 2.11 1.93 1.77 1.63 1.61 1.61 1.52 1.54 1.65 1.63 1.63 1.72 1.80 1.90 2.04 2.16 2.33 2.52 2.55 2.27 2.15 2.16 2.33 2.63 2.71 2.50 2.37 2.28 2.44 2.56 2.35 2.46 2.64 2.63 2.61 2.61
2.28 2.23 2.17 2.03 1.89 1.78 1.77 1.79 1.84 1.86 1.84 1.84 1.90 1.91 1.93 1.98 2.06 2.20 2.35 2.47 2.45 2.21 2.07 2.19 2.33 2.63 2.72 2.71 2.59 2.33 2.35 2.40 2.37 2.48 2.75 2.76 2.68 2.63
2.29 2.15 2.24 2.20 2.06 1.97 1.96 1.96 1.98 1.93 1.93 2.03 2.03 2.04 2.03 2.05 2.10 2.17 2.24 2.27 2.29 2.26 2.19 2.22 2.46 2.74 2.83 2.65 2.36 2.24 2.17 2.12 2.26 2.50 2.59 2.60 2.43 2.34
1.92 1.93 2.08 2.12 2.03 2.00 1.98 1.95 1.88 1.94 2.06 2.03 1.99 2.05 2.09 2.09 2.16 2.23 2.29 2.35 2.32 2.28 2.28 2.39 2.52 2.64 2.62 2.39 2.16 1.99 2.04 2.09 2.24 2.41 2.42 2.34 2.21 2.18
1.68 1.76 1.85 1.93 1.95 1.97 1.99 2.01 1.95 1.98 2.02 2.02 2.02 2.07 2.15 2.17 2.20 2.21 2.19 2.26 2.38 2.39 2.41 2.37 2.39 2.42 2.40 2.40 2.35 2.17 2.03 2.19 2.29 2.27 2.21 2.19 2.15 2.14
1.56 1.63 1.68 1.72 1.77 1.83 1.85 1.93 1.96 1.95 1.95 2.00 1.97 2.01 2.08 2.13 2.18 2.17 2.15 2.24 2.31 2.32 2.33 2.24 2.27 2.56 2.69 2.74 2.52 2.24 2.22 2.31 2.37 2.31 2.33 2.39 2.28 2.18
1.60 1.63 1.61 1.64 1.70 1.78 1.86 1.92 1.94 1.97 2.04 2.05 2.04 2.07 2.09 2.13 2.14 2.18 2.22 2.26 2.26 2.25 2.28 2.35 2.49 2.68 2.80 2.74 2.52 2.43 2.53 2.54 2.54 2.46 2.30 2.27 2.11 1.95
1.59 1.59 1.56 1.56 1.61 1.71 1.79 1.86 1.94 2.01 2.03 2.06 2.13 2.14 2.08 2.07 2.06 2.13 2.17 2.22 2.28 2.36 2.49 2.54 2.52 2.53 2.55 2.58 2.56 2.49 2.43 2.53 2.60 2.53 2.30 2.17 1.97 1.72